Other Surface Observations
Issued by NWS Charleston, SC

Home | Current Version | Previous Version | Text Only | Print | Product List | Glossary On
Versions: 1 2 3 4 5 6 7 8 9 10 11 12 13 14 15 16 17 18 19 20 21 22 23 24 25 26 27 28 29 30 31 32 33 34 35 36 37 38 39 40 41 42 43 44 45 46 47 48 49 50
000
SXUS52 KCHS 292310
OSOCHS

MARINE OBSERVATIONS
NATIONAL WEATHER SERVICE CHARLESTON SC
700 PM EDT FRI AUG 29 2014

...DOWNTOWN CHARLESTON AND HARBOR...

CITY           SKY/WX    TMP DP  RH WIND       PRES   REMARKS
WATERFRONT PRK NOT AVBL
FORT JOHNSON   NOT AVBL

...LAKE MOULTRIE...

CITY           SKY/WX    TMP DP  RH WIND       PRES   REMARKS
PINOPOLIS        N/A     90  73  58 SE6       29.99R HX  98

...LAKE AND SUPPLEMENTAL COASTAL OBSERVATIONS...

STATION/POSITION TIME  TEMP    WIND        PRES    WAVE   SWELL
                       AIR SEA DIR/SP/G            HT/PER HT/PER/DIR
                 (UTC) (F)     (DEG/KT/KT) (MB)    (FT/S) (FT/S/D)
FORT PULASKI     2300   84     130/  6/ 11 1018.4R
SAPELO ISLAND    NOT AVBL
UPR LAKE MARION  NOT AVBL
WINYAH BAY       2200   83     120/ 10     1018.0S
LAKE MURRAY      2200   91     160/  8/  9 1016.6R
ACE BASIN NERRS  2200   87     140/  3     1018.0S


...C-MAN AND BUOY OBSERVATIONS...

STATION/POSITION TIME  TEMP    WIND        PRES    WAVE   SWELL
                       AIR SEA DIR/SP/G            HT/PER HT/PER/DIR
                 (UTC) (F)     (DEG/KT/KT) (MB)    (FT/S) (FT/S/D)
BUOY 41004       2300   83 83  110/  6/  6 1018.1R   3/ 9   3/ 9
BUOY 41008       2300   83 85  130/ 12/ 14 1018.0R   2/ 8   2/ 90/ 8
FOLLY BEACH CMAN 2200   82     110/ 10/ 11 1018.8R
CAPERS NS BUOY   2200   83     120/ 12/ 14   N/A
FRIPP NS BUOY    NOT AVBL
5E ST. MARYS GA  2300      85                N/A     2/ 8
FRYING PAN BUOY  NOT AVBL
BUOY 41025       2300   79      40/ 12/ 14 1019.7F   3/ 8   3/120/ 8
CAPE LOOKOUT NC  2200   81     160/  3/  4 1019.7R
BUOY 41002       2154   81 83  100/  8/ 10 1020.2    4/ 9   3/110/ 9
BUOY 41010       2300   84 84  120/  2/  2 1018.6R   3/ 8   3/100/ 8
BUOY 41012       NOT AVBL
ST AUGUSTINE FL  2300   77     170/ 14/ 15 1018.1R


$$



USA.gov is the U.S. government's official web portal to all federal, state and local government web resources and services.